Regional Weather Roundup
Issued by NWS Charleston, SC

Current Version | Previous Version | Graphics & Text | Print | Product List | Glossary On
Versions: 1 2 3 4 5 6 7 8 9 10 11 12 13 14 15 16 17 18 19 20 21 22 23 24 25 26 27 28 29 30 31 32 33 34 35 36 37 38 39 40 41 42 43 44 45 46 47 48 49 50
000 ASUS42 KCHS 231312 RWRCHS REGIONAL WEATHER ROUNDUP NATIONAL WEATHER SERVICE CHARLESTON SC 900 AM EDT SUN JUL 23 2017 NOTE: "FAIR" INDICATES FEW OR NO CLOUDS BELOW 12,000 FEET WITH NO SIGNIFICANT WEATHER AND/OR OBSTRUCTIONS TO VISIBILITY. NOT ALL STATIONS ARE QUALITY CONTROLLED. USE DATA WITH CAUTION... ESPECIALLY DEWPOINT OBSERVATIONS. SCZ027-030-031-034>040-042>050-231400- ...SOUTHEAST SOUTH CAROLINA... CITY SKY/WX TMP DP RH WIND PRES REMARKS N CHARLESTON MOSUNNY 82 75 79 SW12 29.97F WATERFRONT PRK N/A 81 77 88 SW5 29.96R JOHNS ISLAND FAIR 84 77 79 SW10 29.98S HX 94 PINOPOLIS N/A 81 75 83 SW7 29.89R MONCKS CORNER FAIR 79 73 83 SW9 29.97S SUMMERVILLE FAIR 79 73 83 SW3 29.98S BEAUFORT MCAS MOSUNNY 82 77 84 SW13 29.99S HX 90 BEAUFORT ARPT PTSUNNY 81 75 83 SW7 29.99S HAZE HILTON HEAD IS MOSUNNY 82 77 83 SW12 30.00S HX 91 WALTERBORO SUNNY 81 73 78 W6 29.99R ALLENDALE NOT AVBL ...SOUTHERN MIDLANDS AND PEE DEE... CITY SKY/WX TMP DP RH WIND PRES REMARKS GEORGETOWN FAIR 81 79 94 SW8 29.97S KINGSTREE FAIR 81 73 78 SW6 29.95S ORANGEBURG SUNNY 81 74 79 SW9 29.96S BARNWELL FAIR 84 77 79 SW7 29.97S HX 94 AIKEN FAIR 81 73 78 SW9 30.01R MANNING FAIR 81 77 89 W6 29.96R COLUMBIA MOSUNNY 83 74 74 SW12 29.94R SUMTER SUNNY 82 74 76 SW12 29.92S FLORENCE SUNNY 82 76 81 SW9 29.94R MYRTLE BEACH MOSUNNY 82 75 78 SW9 29.96S N MYRTLE BEACH SUNNY 83 77 82 SW15 29.95R HX 92 $$ GAZ063-065-086>088-099>101-113>116-118-119-134>141-150-231400- ...SOUTHEAST GEORGIA... CITY SKY/WX TMP DP RH WIND PRES REMARKS SAVANNAH ARPT PTSUNNY 81 75 82 SW10 30.00F HUNTER AAF PTSUNNY 80 76 85 SW9 29.98S FORT STEWART CLOUDY 80 75 83 SW10 29.99S STATESBORO MOSUNNY 82 79 91 SW9 29.99F HX 92 SYLVANIA SUNNY 82 78 88 W5 30.00S HX 90 CLAXTON PTSUNNY 81 77 89 CALM 30.00S ...CSRA...CENTRAL AND FAR SOUTHEAST GEORGIA... CITY SKY/WX TMP DP RH WIND PRES REMARKS THOMSON SUNNY 81 74 79 NW6 30.03R AUGUSTA-BUSH SUNNY 84 75 74 W9 29.96R HX 92 AUGUSTA-DANIEL SUNNY 83 72 69 VRB5 29.98R SWAINSBORO FAIR 81 77 89 W7 30.01S VIDALIA MOSUNNY 81 77 89 SW9 30.01S EASTMAN FAIR 82 70 67 W7 30.03S HAZLEHURST FAIR 82 81 96 SW6 30.01S HX 94 ALMA CLOUDY 80 76 87 SW6 30.02S WAYCROSS CLOUDY 82 82 100 SW7 30.03S HX 95 JESUP NOT AVBL BAXLEY CLOUDY 81 81 100 SW5 30.02S HX 91 BRUNSWICK CLOUDY 79 77 94 SW6 30.04R SAINT SIMONS CLOUDY 80 76 87 SW9 30.03R $$ SCZ027-028-034-036>038-045-046-048>050-GAZ119-141-231400- ...LAKE AND SUPPLEMENTAL COASTAL OBSERVATIONS... STATION/POSITION TIME TEMP WIND PRES WAVE SWELL AIR SEA DIR/SP/G HT/PER HT/PER/DIR (UTC) (F) (DEG/KT/KT) (MB) (FT/S) (FT/S/D) WINYAH BAY 1145 79 230/ 7 1014.0 LAKE MURRAY NOT AVBL ACE BASIN NERRS NOT AVBL FORT PULASKI 1248 78 86 240/ 6/ 10 1016.4S SAPELO ISLAND 1200 78 250/ 8 1016.0 $$ ANZ835-935-AMZ111-154-330-350-352-354-370-450-454-472-231400- ...C-MAN AND BUOY OBSERVATIONS... STATION/POSITION TIME TEMP WIND PRES WAVE SWELL AIR SEA DIR/SP/G HT/PER HT/PER/DIR (UTC) (F) (DEG/KT/KT) (MB) (FT/S) (FT/S/D) BUOY 41004 1250 82 83 230/ 17/ 21 1015.0S 4/ 5 2/110/10 BUOY 41008 1150 79 80 240/ 14/ 16 1015.7 3/ 5 2/ 90/ 9 FOLLY BEACH CMAN 1200 82 230/ 9/ 12 1015.7R CAPERS NEARSHORE 1208 81 83 240/ 14/ 17 1014.6R FRIPP NEARSHORE 1208 80 84 230/ 14/ 17 1015.0R STATION/POSITION TIME TEMP WIND PRES WAVE SWELL AIR SEA DIR/SP/G HT/PER HT/PER/DIR (UTC) (F) (DEG/KT/KT) (MB) (FT/S) (FT/S/D) 5E ST. MARYS GA 1230 81 N/A 2/ 9 FRYING PAN BUOY 1250 82 84 220/ 17/ 21 1014.4R 5/ 5 2/160/ 9 BUOY 41025 1250 84 85 240/ 25/ 29 1012.1R 5/ 6 2/240/ 9 CAPE LOOKOUT NC 1200 82 220/ 14/ 17 1012.9R BUOY 41002 1250 84 83 230/ 16/ 19 1017.0R 5/ 6 2/100/10 BUOY 41010 1250 81 85 220/ 14/ 16 1017.8R 4/ 9 2/110/ 9 ST AUGUSTINE FL 1300 80 76 230/ 7/ 10 1017.8R $$

USA.gov is the U.S. government's official web portal to all federal, state and local government web resources and services.